Tiempo cada hora Banfora

Hoy, 30 Octubre, Viernes

Tiempo Temperatura Precipitaciones Viento Presión Humedad
00:00 +24°C° 0 mm 0 mps 733 mmHg 37%
01:00 +24°C° 0 mm 0 mps 733 mmHg 37%
02:00 +25°C° 0 mm 1 mps 732 mmHg 38%
03:00 +25°C° 0 mm 1 mps 732 mmHg 39%
04:00 +25°C° 0 mm 1 mps 732 mmHg 40%
05:00 +22°C° 0 mm 0 mps 732 mmHg 41%
06:00 +22°C° 0 mm 0 mps 732 mmHg 42%
07:00 +24°C° 0 mm 0 mps 733 mmHg 40%
08:00 +27°C° 0 mm 0 mps 733 mmHg 38%
09:00 +31°C° 0 mm 1 mps 734 mmHg 36%
10:00 +33°C° 0 mm 1 mps 734 mmHg 31%
11:00 +35°C° 0 mm 1 mps 733 mmHg 26%
12:00 +38°C° 0 mm 2 mps 733 mmHg 21%
13:00 +38°C° 0 mm 2 mps 732 mmHg 21%
14:00 +38°C° 0 mm 2 mps 732 mmHg 21%
15:00 +38°C° 0 mm 2 mps 731 mmHg 21%
16:00 +36°C° 0 mm 2 mps 731 mmHg 25%
17:00 +33°C° 0 mm 1 mps 731 mmHg 30%
18:00 +31°C° 0 mm 1 mps 731 mmHg 35%
19:00 +28°C° 0 mm 0 mps 732 mmHg 35%
20:00 +27°C° 0 mm 0 mps 732 mmHg 36%
21:00 +26°C° 0 mm 0 mps 733 mmHg 37%
22:00 +26°C° 0 mm 0 mps 733 mmHg 37%
23:00 +26°C° 0 mm 0 mps 733 mmHg 38%

Mañana, 31 Octubre, Sábado

Tiempo Temperatura Precipitaciones Viento Presión Humedad
00:00 +27°C° 0 mm 1 mps 733 mmHg 38%
01:00 +25°C° 0 mm 0 mps 732 mmHg 40%
02:00 +24°C° 0 mm 0 mps 732 mmHg 41%
03:00 +23°C° 0 mm 0 mps 732 mmHg 43%
04:00 +23°C° 0 mm 0 mps 732 mmHg 44%
05:00 +23°C° 0 mm 0 mps 732 mmHg 44%
06:00 +23°C° 0 mm 0 mps 732 mmHg 45%
07:00 +27°C° 0 mm 1 mps 733 mmHg 42%
08:00 +29°C° 0 mm 1 mps 733 mmHg 40%
09:00 +31°C° 0 mm 1 mps 734 mmHg 37%
10:00 +33°C° 0 mm 1 mps 734 mmHg 34%
11:00 +36°C° 0 mm 1 mps 733 mmHg 30%
12:00 +36°C° 0 mm 0 mps 733 mmHg 27%
13:00 +39°C° 0 mm 1 mps 732 mmHg 25%
14:00 +39°C° 0 mm 1 mps 732 mmHg 24%
15:00 +38°C° 0 mm 2 mps 731 mmHg 23%
16:00 +35°C° 0 mm 1 mps 731 mmHg 27%
17:00 +34°C° 0 mm 1 mps 731 mmHg 30%
18:00 +32°C° 0 mm 1 mps 731 mmHg 34%
19:00 +31°C° 0 mm 1 mps 731 mmHg 35%
20:00 +28°C° 0 mm 0 mps 732 mmHg 36%
21:00 +27°C° 0 mm 0 mps 732 mmHg 37%
22:00 +27°C° 0 mm 0 mps 732 mmHg 37%
23:00 +26°C° 0 mm 0 mps 732 mmHg 38%

Pasado mañana, 1 Noviembre, Domingo

Tiempo Temperatura Precipitaciones Viento Presión Humedad
00:00 +26°C° 0 mm 0 mps 732 mmHg 39%
01:00 +25°C° 0 mm 0 mps 732 mmHg 40%
02:00 +25°C° 0 mm 0 mps 731 mmHg 40%
03:00 +25°C° 0 mm 0 mps 731 mmHg 40%
04:00 +24°C° 0 mm 0 mps 731 mmHg 43%
05:00 +24°C° 0 mm 0 mps 731 mmHg 45%
06:00 +25°C° 0 mm 1 mps 731 mmHg 47%
07:00 +27°C° 0 mm 1 mps 732 mmHg 45%
08:00 +29°C° 0 mm 1 mps 732 mmHg 43%
09:00 +31°C° 0 mm 1 mps 733 mmHg 41%
10:00 +34°C° 0 mm 1 mps 732 mmHg 36%
11:00 +34°C° 0 mm 0 mps 732 mmHg 32%
12:00 +37°C° 0 mm 0 mps 732 mmHg 27%
13:00 +39°C° 0 mm 1 mps 731 mmHg 25%
14:00 +39°C° 0 mm 1 mps 730 mmHg 23%
15:00 +39°C° 0 mm 1 mps 730 mmHg 22%
16:00 +36°C° 0 mm 1 mps 730 mmHg 25%
17:00 +34°C° 0 mm 1 mps 730 mmHg 28%
18:00 +30°C° 0 mm 0 mps 730 mmHg 31%
19:00 +29°C° 0 mm 0 mps 731 mmHg 32%
20:00 +28°C° 0 mm 0 mps 731 mmHg 34%
21:00 +27°C° 0 mm 0 mps 732 mmHg 35%
22:00 +27°C° 0 mm 0 mps 732 mmHg 36%
23:00 +26°C° 0 mm 0 mps 732 mmHg 37%

2 Noviembre, Lunes

Tiempo Temperatura Precipitaciones Viento Presión Humedad
00:00 +26°C° 0 mm 0 mps 732 mmHg 38%
01:00 +25°C° 0 mm 0 mps 731 mmHg 42%
02:00 +26°C° 0 mm 1 mps 731 mmHg 47%
03:00 +26°C° 0 mm 1 mps 731 mmHg 51%
04:00 +25°C° 0 mm 1 mps 731 mmHg 56%
05:00 +25°C° 0 mm 1 mps 731 mmHg 62%
06:00 +25°C° 0 mm 1 mps 731 mmHg 68%
07:00 +27°C° 0 mm 1 mps 732 mmHg 65%
08:00 +29°C° 0 mm 2 mps 732 mmHg 63%
09:00 +30°C° 0 mm 3 mps 733 mmHg 61%
10:00 +34°C° 0 mm 2 mps 733 mmHg 52%
11:00 +36°C° 0 mm 2 mps 732 mmHg 43%
12:00 +37°C° 0 mm 1 mps 732 mmHg 34%
13:00 +37°C° 0 mm 1 mps 732 mmHg 32%
14:00 +38°C° 0 mm 2 mps 731 mmHg 30%
15:00 +38°C° 0 mm 2 mps 730 mmHg 28%
16:00 +36°C° 0 mm 2 mps 730 mmHg 32%
17:00 +35°C° 0 mm 2 mps 730 mmHg 36%
18:00 +32°C° 0 mm 1 mps 731 mmHg 40%
19:00 +31°C° 0 mm 1 mps 731 mmHg 41%
20:00 +30°C° 0 mm 1 mps 732 mmHg 43%
21:00 +28°C° 0 mm 0 mps 732 mmHg 44%
22:00 +27°C° 0 mm 0 mps 732 mmHg 46%
23:00 +27°C° 0 mm 0 mps 733 mmHg 47%

3 Noviembre, Martes

Tiempo Temperatura Precipitaciones Viento Presión Humedad
00:00 +27°C° 0 mm 0 mps 733 mmHg 48%
01:00 +26°C° 0 mm 0 mps 732 mmHg 51%
02:00 +27°C° 0 mm 1 mps 732 mmHg 54%
03:00 +27°C° 0 mm 1 mps 731 mmHg 57%
04:00 +26°C° 0 mm 1 mps 732 mmHg 60%
05:00 +26°C° 0 mm 1 mps 732 mmHg 64%
06:00 +23°C° 0 mm 0 mps 732 mmHg 67%
07:00 +27°C° 0 mm 1 mps 733 mmHg 64%
08:00 +29°C° 0 mm 1 mps 733 mmHg 61%
09:00 +31°C° 0 mm 2 mps 734 mmHg 58%
10:00 +34°C° 0 mm 2 mps 733 mmHg 50%
11:00 +36°C° 0 mm 2 mps 733 mmHg 43%
12:00 +38°C° 0 mm 2 mps 733 mmHg 35%
13:00 +38°C° 0 mm 2 mps 732 mmHg 34%
14:00 +38°C° 0 mm 2 mps 731 mmHg 33%
15:00 +38°C° 0 mm 2 mps 731 mmHg 32%
16:00 +35°C° 0 mm 1 mps 731 mmHg 35%
17:00 +34°C° 0 mm 1 mps 731 mmHg 38%
18:00 +32°C° 0 mm 1 mps 731 mmHg 42%
19:00 +32°C° 0 mm 1 mps 732 mmHg 42%
20:00 +29°C° 0 mm 0 mps 732 mmHg 43%
21:00 +29°C° 0 mm 0 mps 732 mmHg 44%
22:00 +28°C° 0 mm 0 mps 732 mmHg 46%
23:00 +27°C° 0 mm 0 mps 732 mmHg 48%

4 Noviembre, Miércoles

Tiempo Temperatura Precipitaciones Viento Presión Humedad
00:00 +27°C° 0 mm 0 mps 732 mmHg 51%
01:00 +26°C° 0 mm 0 mps 732 mmHg 53%
02:00 +26°C° 0 mm 0 mps 732 mmHg 55%
03:00 +25°C° 0 mm 0 mps 731 mmHg 57%
04:00 +25°C° 0 mm 0 mps 731 mmHg 59%
05:00 +25°C° 0 mm 0 mps 732 mmHg 60%
06:00 +27°C° 0 mm 1 mps 732 mmHg 62%
07:00 +29°C° 0 mm 1 mps 732 mmHg 60%
08:00 +30°C° 0 mm 1 mps 733 mmHg 57%
09:00 +32°C° 0 mm 1 mps 733 mmHg 55%
10:00 +35°C° 0 mm 2 mps 733 mmHg 46%
11:00 +36°C° 0 mm 2 mps 733 mmHg 38%
12:00 +38°C° 0 mm 2 mps 733 mmHg 30%
13:00 +38°C° 0 mm 2 mps 732 mmHg 29%
14:00 +38°C° 0 mm 2 mps 731 mmHg 28%
15:00 +37°C° 0 mm 1 mps 730 mmHg 27%
16:00 +35°C° 0 mm 1 mps 730 mmHg 30%
17:00 +34°C° 0 mm 1 mps 730 mmHg 33%
18:00 +30°C° 0 mm 0 mps 730 mmHg 35%
19:00 +29°C° 0 mm 0 mps 731 mmHg 37%
20:00 +28°C° 0 mm 0 mps 731 mmHg 39%
21:00 +27°C° 0 mm 0 mps 732 mmHg 41%
22:00 +27°C° 0 mm 0 mps 732 mmHg 43%
23:00 +27°C° 0 mm 0 mps 732 mmHg 44%
Mostrar más

Necesitamos Su Consentimiento

Meteoprog y nuestros Proveedores de Servicios pueden almacenar y acceder a sus datos personales como cookies, identificadores de dispositivo u otras tecnologías similares de su dispositivo y procesar dichos datos para personalizar contenido y anuncios, además de ofrecer funciones de redes sociales y analizar el tráfico.

  • Almacenar y/o acceder a información en su dispositivo

    Se puede almacenar o acceder a cookies, identificadores de dispositivo u otra información de su dispositivo para los fines anteriormente indicados.

  • Anuncios y contenido personalizados, medición de anuncios y contenido, percepciones del público, y desarrollo de productos

    Los anuncios y el contenido pueden personalizarse en base a su perfil. Se pueden añadir más datos para personalizar mejor los anuncios y contenidos. Se puede medir el rendimiento de los anuncios y contenidos. Se puede obtener la percepción sobre el público que ha visto los anuncios y contenidos. Dichos datos pueden usarse para desarrollar o mejorar la experiencia del usuario, sistemas y software.

Al hacer clic en ‘Estoy De Acuerdo’ usted permitirá el uso de las cookies, identificadores de dispositivo, balizas web u otras tecnologías similares indicadas. Su configuración puede cambiarse desde el navegador de su dispositivo.

Para ciertos fines, los intereses legítimos pueden ser considerados por encima del consentimiento. Puede leer más sobre ello en nuestra Política de Privacidad y Cookies.